| time (UTC) | temp C | wind direction | speed KPH | gust KPH | rain 1hr cm | rain 24hr cm | rain mn cm | humidity % | barometer mb |
| 20260505124846 | 15 | 10 | 4.8 | 11.3 | 0.00 | 0.71 | 0.71 | 96 | 1009.6 |
| 20260505124343 | 15 | 25 | 9.7 | 9.7 | 0.00 | 0.71 | 0.71 | 96 | 1009.5 |
| 20260505123839 | 14 | 47 | 9.7 | 12.9 | 0.00 | 0.71 | 0.71 | 96 | 1009.6 |
| 20260505123336 | 15 | 20 | 1.6 | 9.7 | 0.00 | 0.71 | 0.71 | 96 | 1009.3 |
| 20260505122831 | 14 | 11 | 1.6 | 9.7 | 0.00 | 0.71 | 0.71 | 96 | 1009.5 |
| 20260505122329 | 15 | 4 | 9.7 | 14.5 | 0.00 | 0.71 | 0.71 | 96 | 1009.0 |
| 20260505121826 | 15 | 28 | 14.5 | 14.5 | 0.00 | 0.71 | 0.71 | 96 | 1009.0 |
| 20260505121323 | 14 | 53 | 6.4 | 9.7 | 0.00 | 0.71 | 0.71 | 96 | 1009.0 |
| 20260505120819 | 14 | 8 | 6.4 | 9.7 | 0.00 | 0.71 | 0.71 | 96 | 1008.9 |
| 20260505120315 | 14 | 30 | 8.0 | 9.7 | 0.00 | 0.71 | 0.71 | 96 | 1009.0 |
| 20260505115814 | 14 | 32 | 9.7 | 12.9 | 0.00 | 0.71 | 0.71 | 96 | 1008.8 |
| 20260505115311 | 14 | 48 | 8.0 | 9.7 | 0.00 | 0.71 | 0.71 | 96 | 1009.0 |
| 20260505114809 | 14 | 60 | 4.8 | 8.0 | 0.00 | 0.71 | 0.71 | 96 | 1009.0 |
| 20260505114305 | 15 | 355 | 1.6 | 6.4 | 0.00 | 0.71 | 0.71 | 96 | 1009.1 |
| 20260505113801 | 15 | 355 | 8.0 | 12.9 | 0.00 | 0.71 | 0.71 | 96 | 1009.4 |
| 20260505113258 | 15 | 350 | 4.8 | 9.7 | 0.00 | 0.71 | 0.71 | 96 | 1009.0 |
| 20260505112754 | 14 | 0 | 4.8 | 14.5 | 0.00 | 0.71 | 0.71 | 96 | 1008.9 |
| 20260505112252 | 15 | 4 | 8.0 | 12.9 | 0.00 | 0.71 | 0.71 | 96 | 1009.1 |
| 20260505111747 | 15 | 5 | 4.8 | 9.7 | 0.00 | 0.71 | 0.71 | 96 | 1008.9 |
| 20260505111243 | 15 | 359 | 9.7 | 16.1 | 0.00 | 0.71 | 0.71 | 96 | 1008.6 |
| 20260505110739 | 15 | 355 | 4.8 | 11.3 | 0.00 | 0.71 | 0.71 | 96 | 1008.6 |
| 20260505110237 | 15 | 352 | 6.4 | 16.1 | 0.23 | 0.71 | 0.71 | 95 | 1008.5 |
| 20260505102212 | 15 | 212 | 4.8 | 4.8 | 0.13 | 0.61 | 0.61 | 95 | 1009.1 |
| 20260505101710 | 15 | 191 | 4.8 | 6.4 | 0.13 | 0.61 | 0.61 | 95 | 1008.3 |
| 20260505101206 | 15 | 196 | 6.4 | 8.0 | 0.00 | 0.58 | 0.58 | 95 | 1008.6 |
| 20260505100703 | 15 | 163 | 4.8 | 11.3 | 0.00 | 0.58 | 0.58 | 95 | 1008.6 |
| 20260505100200 | 15 | 151 | 8.0 | 11.3 | 0.13 | 0.58 | 0.58 | 95 | 1008.6 |
| 20260505095655 | 15 | 140 | 9.7 | 12.9 | 0.23 | 0.58 | 0.58 | 95 | 1008.6 |
| 20260505095154 | 15 | 172 | 8.0 | 11.3 | 0.43 | 0.56 | 0.56 | 95 | 1008.6 |
| 20260505094649 | 15 | 135 | 9.7 | 14.5 | 0.23 | 0.53 | 0.53 | 95 | 1008.3 |
| 20260505094145 | 15 | 170 | 9.7 | 11.3 | 0.13 | 0.51 | 0.51 | 95 | 1009.1 |
| 20260505093642 | 15 | 181 | 9.7 | 9.7 | 0.13 | 0.48 | 0.48 | 95 | 1008.5 |
| 20260505093140 | 15 | 161 | 8.0 | 14.5 | 0.18 | 0.48 | 0.48 | 95 | 1008.3 |
| 20260505092636 | 15 | 144 | 9.7 | 16.1 | 0.48 | 0.46 | 0.46 | 95 | 1008.3 |
| 20260505092135 | 15 | 166 | 8.0 | 9.7 | 0.30 | 0.43 | 0.43 | 95 | 1008.6 |
| 20260505091631 | 15 | 160 | 8.0 | 11.3 | 0.05 | 0.38 | 0.38 | 95 | 1008.8 |
| 20260505091129 | 15 | 145 | 6.4 | 9.7 | 0.00 | 0.38 | 0.38 | 95 | 1008.5 |
| 20260505090626 | 15 | 134 | 8.0 | 9.7 | 0.13 | 0.38 | 0.38 | 95 | 1008.3 |
| 20260505090125 | 15 | 146 | 4.8 | 14.5 | 0.13 | 0.38 | 0.38 | 95 | 1008.3 |
| 20260505085622 | 15 | 141 | 11.3 | 12.9 | 0.13 | 0.36 | 0.36 | 95 | 1008.3 |
| 20260505085120 | 15 | 148 | 8.0 | 11.3 | 0.30 | 0.36 | 0.36 | 95 | 1009.0 |
| 20260505084617 | 15 | 146 | 11.3 | 12.9 | 0.13 | 0.33 | 0.33 | 95 | 1008.5 |
| 20260505084116 | 15 | 129 | 4.8 | 8.0 | 0.05 | 0.30 | 0.30 | 95 | 1009.0 |
| 20260505083613 | 15 | 142 | 4.8 | 11.3 | 0.18 | 0.30 | 0.30 | 95 | 1009.0 |
| 20260505083109 | 15 | 141 | 8.0 | 8.0 | 0.30 | 0.30 | 0.30 | 95 | 1009.1 |
| 20260505082605 | 15 | 152 | 4.8 | 4.8 | 0.13 | 0.28 | 0.28 | 95 | 1009.5 |
| 20260505082102 | 15 | 117 | 0.0 | 3.2 | 0.05 | 0.25 | 0.25 | 95 | 1009.7 |
| 20260505081558 | 15 | 287 | 4.8 | 4.8 | 0.13 | 0.23 | 0.23 | 95 | 1009.8 |
| 20260505081055 | 15 | 310 | 3.2 | 4.8 | 0.18 | 0.23 | 0.23 | 95 | 1009.8 |
| 20260505080551 | 15 | 346 | 3.2 | 4.8 | 0.18 | 0.20 | 0.20 | 95 | 1009.4 |
| 20260505080049 | 15 | 121 | 4.8 | 6.4 | 0.23 | 0.18 | 0.18 | 98 | 1008.7 |
| 20260505075544 | 15 | 165 | 0.0 | 3.2 | 0.43 | 0.18 | 0.18 | 98 | 1009.6 |
| 20260505075041 | 15 | 49 | 3.2 | 4.8 | 0.43 | 0.15 | 0.15 | 99 | 1009.6 |
| 20260505074538 | 15 | 341 | 3.2 | 3.2 | 0.43 | 0.10 | 0.10 | 99 | 1010.4 |
| 20260505074035 | 15 | 273 | 4.8 | 6.4 | 0.30 | 0.05 | 0.05 | 99 | 1010.7 |
| 20260505073533 | 15 | 285 | 3.2 | 8.0 | 0.05 | 0.03 | 0.03 | 99 | 1010.7 |
| 20260505073032 | 15 | 295 | 8.0 | 8.0 | 0.00 | 0.00 | 0.00 | 99 | 1010.6 |
| 20260505072526 | 15 | 285 | 4.8 | 6.4 | 0.00 | 0.00 | 0.00 | 99 | 1010.8 |
| 20260505072023 | 15 | 290 | 3.2 | 8.0 | 0.00 | 0.00 | 0.00 | 98 | 1010.8 |
| 20260505071518 | 15 | 273 | 6.4 | 8.0 | 0.00 | 0.00 | 0.00 | 98 | 1010.8 |
| 20260505071017 | 16 | 279 | 9.7 | 11.3 | 0.00 | 0.00 | 0.00 | 98 | 1011.5 |
| 20260505070514 | 16 | 252 | 8.0 | 12.9 | 0.00 | 0.00 | 0.00 | 98 | 1011.6 |
| 20260505070010 | 16 | 264 | 8.0 | 11.3 | 0.00 | 0.00 | 0.00 | 97 | 1011.6 |
| 20260505065506 | 16 | 268 | 8.0 | 9.7 | 0.00 | 0.00 | 0.00 | 96 | 1010.6 |
| 20260505065002 | 16 | 270 | 0.0 | 8.0 | 0.00 | 0.00 | 0.00 | 95 | 1010.4 |
| 20260505064459 | 16 | 245 | 3.2 | 9.7 | 0.00 | 0.00 | 0.00 | 95 | 1010.4 |
| 20260505063958 | 16 | 270 | 4.8 | 16.1 | 0.00 | 0.00 | 0.00 | 94 | 1010.4 |
| 20260505063454 | 16 | 287 | 9.7 | 17.7 | 0.00 | 0.00 | 0.00 | 92 | 1010.2 |
| 20260505062950 | 16 | 175 | 11.3 | 25.7 | 0.00 | 0.00 | 0.00 | 90 | 1009.3 |
| 20260505062447 | 17 | 178 | 12.9 | 24.1 | 0.05 | 0.00 | 0.00 | 88 | 1009.0 |
| 20260505061944 | 17 | 206 | 16.1 | 27.4 | 0.05 | 0.00 | 0.00 | 85 | 1008.9 |
| 20260505061442 | 17 | 198 | 12.9 | 24.1 | 0.00 | 0.00 | 0.00 | 82 | 1008.9 |
| 20260505060940 | 17 | 180 | 8.0 | 20.9 | 0.00 | 0.00 | 0.00 | 82 | 1008.9 |
| 20260505060437 | 18 | 174 | 12.9 | 19.3 | 0.00 | 0.00 | 0.00 | 81 | 1009.3 |
| 20260505055933 | 18 | 163 | 8.0 | 17.7 | 0.00 | 0.00 | 0.00 | 80 | 1008.8 |
| 20260505055429 | 18 | 135 | 12.9 | 17.7 | 0.00 | 0.00 | 0.00 | 78 | 1009.0 |
| 20260505054926 | 18 | 163 | 8.0 | 11.3 | 0.00 | 0.00 | 0.00 | 78 | 1009.4 |
| 20260505054423 | 18 | 166 | 8.0 | 11.3 | 0.00 | 0.00 | 0.00 | 78 | 1009.4 |
| 20260505053921 | 18 | 206 | 8.0 | 11.3 | 0.00 | 0.00 | 0.00 | 77 | 1009.4 |
| 20260505053418 | 18 | 153 | 8.0 | 11.3 | 0.00 | 0.00 | 0.00 | 78 | 1009.3 |
| 20260505052915 | 18 | 167 | 8.0 | 11.3 | 0.00 | 0.00 | 0.00 | 79 | 1009.3 |
| 20260505052412 | 18 | 159 | 8.0 | 9.7 | 0.00 | 0.00 | 0.00 | 80 | 1009.4 |
| 20260505051909 | 18 | 163 | 8.0 | 8.0 | 0.00 | 0.00 | 0.00 | 80 | 1009.5 |
| 20260505051406 | 18 | 170 | 4.8 | 9.7 | 0.00 | 0.00 | 0.00 | 79 | 1009.4 |
| 20260505050904 | 18 | 164 | 9.7 | 11.3 | 0.00 | 0.00 | 0.00 | 79 | 1009.2 |
| 20260505050402 | 18 | 166 | 8.0 | 9.7 | 0.00 | 0.00 | 0.00 | 80 | 1009.1 |
| 20260505041330 | 18 | 162 | 8.0 | 11.3 | 0.00 | 0.00 | 0.00 | 80 | 1009.7 |
| 20260505040827 | 18 | 167 | 4.8 | 11.3 | 0.00 | 0.00 | 0.00 | 80 | 1009.4 |
| 20260505040324 | 17 | 150 | 6.4 | 8.0 | 0.00 | 0.00 | 0.00 | 81 | 1009.9 |
| 20260505035821 | 17 | 162 | 4.8 | 8.0 | 0.00 | 0.00 | 0.00 | 82 | 1009.6 |
| 20260505035317 | 17 | 159 | 4.8 | 8.0 | 0.00 | 0.00 | 0.00 | 82 | 1010.1 |
| 20260505034814 | 17 | 154 | 4.8 | 6.4 | 0.00 | 0.00 | 0.00 | 83 | 1010.0 |
| 20260505034311 | 17 | 152 | 4.8 | 4.8 | 0.00 | 0.00 | 0.00 | 84 | 1010.0 |
| 20260505033808 | 17 | 157 | 4.8 | 6.4 | 0.00 | 0.00 | 0.00 | 82 | 1010.1 |
| 20260505033305 | 17 | 140 | 4.8 | 4.8 | 0.00 | 0.00 | 0.00 | 81 | 1010.0 |
| 20260505032803 | 17 | 158 | 3.2 | 6.4 | 0.00 | 0.00 | 0.00 | 81 | 1010.0 |
| 20260505032259 | 17 | 172 | 4.8 | 6.4 | 0.00 | 0.00 | 0.00 | 81 | 1010.0 |
| 20260505031756 | 17 | 150 | 6.4 | 6.4 | 0.00 | 0.00 | 0.00 | 81 | 1010.1 |
| 20260505031252 | 17 | 176 | 3.2 | 6.4 | 0.00 | 0.00 | 0.00 | 82 | 1010.1 |
| 20260505030750 | 17 | 138 | 4.8 | 6.4 | 0.00 | 0.00 | 0.00 | 82 | 1009.9 |
| 20260505030246 | 17 | 144 | 3.2 | 4.8 | 0.00 | 0.00 | 0.00 | 82 | 1010.1 |
| 20260505025741 | 17 | 149 | 4.8 | 4.8 | 0.00 | 0.00 | 0.00 | 82 | 1010.0 |
| 20260505025240 | 17 | 154 | 1.6 | 3.2 | 0.00 | 0.00 | 0.00 | 83 | 1010.0 |
| 20260505024738 | 17 | 151 | 1.6 | 3.2 | 0.00 | 0.00 | 0.00 | 84 | 1009.9 |
| 20260505024235 | 17 | 180 | 1.6 | 4.8 | 0.00 | 0.00 | 0.00 | 83 | 1009.9 |
| 20260505023732 | 17 | 156 | 3.2 | 4.8 | 0.00 | 0.00 | 0.00 | 82 | 1009.7 |
| 20260505023229 | 17 | 168 | 1.6 | 4.8 | 0.00 | 0.00 | 0.00 | 82 | 1009.8 |
| 20260505022726 | 17 | 161 | 3.2 | 4.8 | 0.00 | 0.00 | 0.00 | 80 | 1009.7 |
| 20260505022223 | 17 | 165 | 3.2 | 4.8 | 0.00 | 0.00 | 0.00 | 82 | 1009.7 |
| 20260505021720 | 17 | 162 | 1.6 | 3.2 | 0.00 | 0.00 | 0.00 | 82 | 1009.8 |
| 20260505021217 | 17 | 151 | 3.2 | 3.2 | 0.00 | 0.00 | 0.00 | 80 | 1009.5 |
| 20260505020712 | 18 | 165 | 3.2 | 3.2 | 0.00 | 0.00 | 0.00 | 80 | 1009.7 |
| 20260505020208 | 18 | 173 | 4.8 | 4.8 | 0.00 | 0.00 | 0.00 | 79 | 1009.7 |
| 20260505015706 | 18 | 202 | 3.2 | 4.8 | 0.00 | 0.00 | 0.00 | 78 | 1009.5 |
| 20260505015202 | 18 | 186 | 4.8 | 4.8 | 0.00 | 0.00 | 0.00 | 78 | 1009.4 |
| 20260505014659 | 18 | 176 | 3.2 | 4.8 | 0.00 | 0.00 | 0.00 | 77 | 1009.5 |
| 20260505014156 | 18 | 180 | 3.2 | 4.8 | 0.00 | 0.00 | 0.00 | 77 | 1009.4 |
| 20260505013654 | 19 | 233 | 3.2 | 4.8 | 0.00 | 0.00 | 0.00 | 75 | 1009.3 |
| 20260505013150 | 19 | 230 | 4.8 | 4.8 | 0.00 | 0.00 | 0.00 | 75 | 1009.4 |
| 20260505012649 | 19 | 221 | 3.2 | 4.8 | 0.00 | 0.00 | 0.00 | 74 | 1009.3 |
| 20260505012146 | 20 | 190 | 3.2 | 6.4 | 0.00 | 0.00 | 0.00 | 73 | 1009.1 |
| 20260505011641 | 20 | 207 | 6.4 | 8.0 | 0.00 | 0.00 | 0.00 | 72 | 1009.1 |
| 20260505011139 | 20 | 214 | 4.8 | 8.0 | 0.00 | 0.00 | 0.00 | 71 | 1009.2 |
| 20260505010634 | 20 | 216 | 4.8 | 9.7 | 0.00 | 0.00 | 0.00 | 70 | 1009.2 |
| 20260505010131 | 21 | 228 | 9.7 | 14.5 | 0.00 | 0.00 | 0.00 | 68 | 1008.9 |
| 20260505005627 | 21 | 215 | 8.0 | 14.5 | 0.00 | 0.00 | 0.00 | 68 | 1008.9 |
| 20260505005124 | 21 | 207 | 11.3 | 16.1 | 0.00 | 0.00 | 0.00 | 67 | 1009.0 |
| 20260505004621 | 21 | 198 | 9.7 | 25.7 | 0.00 | 0.00 | 0.00 | 66 | 1008.8 |
| 20260505004118 | 21 | 220 | 9.7 | 17.7 | 0.00 | 0.00 | 0.00 | 66 | 1008.8 |
| 20260505003615 | 21 | 216 | 8.0 | 16.1 | 0.00 | 0.00 | 0.00 | 67 | 1008.8 |
| 20260505003112 | 21 | 170 | 11.3 | 16.1 | 0.00 | 0.00 | 0.00 | 66 | 1008.9 |
| 20260505002607 | 21 | 197 | 11.3 | 12.9 | 0.00 | 0.00 | 0.00 | 67 | 1008.7 |
| 20260505002101 | 22 | 205 | 9.7 | 16.1 | 0.00 | 0.00 | 0.00 | 65 | 1008.9 |
| 20260505001557 | 22 | 208 | 9.7 | 17.7 | 0.00 | 0.00 | 0.00 | 64 | 1008.7 |
| 20260505001055 | 22 | 202 | 12.9 | 20.9 | 0.00 | 0.00 | 0.00 | 63 | 1008.3 |
| 20260505000552 | 22 | 208 | 14.5 | 19.3 | 0.00 | 0.00 | 0.00 | 63 | 1008.7 |
| 20260505000050 | 22 | 195 | 11.3 | 24.1 | 0.00 | 0.00 | 0.00 | 63 | 1008.6 |
| 20260504235546 | 22 | 206 | 8.0 | 14.5 | 0.00 | 0.00 | 0.00 | 65 | 1008.7 |
| 20260504235043 | 22 | 195 | 11.3 | 17.7 | 0.00 | 0.00 | 0.00 | 64 | 1008.3 |
| 20260504234540 | 22 | 203 | 12.9 | 17.7 | 0.00 | 0.00 | 0.00 | 63 | 1008.5 |
| 20260504234037 | 22 | 204 | 12.9 | 19.3 | 0.00 | 0.00 | 0.00 | 62 | 1008.6 |
| 20260504233532 | 22 | 207 | 8.0 | 9.7 | 0.00 | 0.00 | 0.00 | 63 | 1008.6 |
| 20260504233029 | 23 | 197 | 8.0 | 11.3 | 0.00 | 0.00 | 0.00 | 63 | 1008.6 |
| 20260504232526 | 23 | 185 | 8.0 | 16.1 | 0.00 | 0.00 | 0.00 | 63 | 1008.5 |
| 20260504232024 | 23 | 197 | 9.7 | 20.9 | 0.00 | 0.00 | 0.00 | 62 | 1008.6 |
| 20260504231521 | 23 | 170 | 8.0 | 14.5 | 0.00 | 0.00 | 0.00 | 63 | 1008.7 |
| 20260504231017 | 23 | 192 | 11.3 | 14.5 | 0.00 | 0.00 | 0.00 | 62 | 1008.8 |
| 20260504230513 | 23 | 171 | 9.7 | 19.3 | 0.00 | 0.00 | 0.00 | 61 | 1008.7 |
| 20260504230012 | 23 | 199 | 20.9 | 27.4 | 0.00 | 0.00 | 0.00 | 59 | 1008.7 |
| 20260504225509 | 23 | 185 | 9.7 | 24.1 | 0.00 | 0.00 | 0.00 | 59 | 1008.5 |
| 20260504225006 | 23 | 210 | 9.7 | 19.3 | 0.00 | 0.00 | 0.00 | 61 | 1008.7 |
| 20260504224503 | 23 | 191 | 14.5 | 20.9 | 0.00 | 0.00 | 0.00 | 60 | 1008.5 |
| 20260504223959 | 23 | 175 | 16.1 | 24.1 | 0.00 | 0.00 | 0.00 | 59 | 1008.3 |
| 20260504223456 | 24 | 202 | 19.3 | 25.7 | 0.00 | 0.00 | 0.00 | 58 | 1008.6 |
| 20260504222951 | 24 | 187 | 17.7 | 25.7 | 0.00 | 0.00 | 0.00 | 58 | 1008.5 |
| 20260504222449 | 25 | 169 | 9.7 | 16.1 | 0.00 | 0.00 | 0.00 | 61 | 1008.3 |
| 20260504221947 | 24 | 189 | 9.7 | 27.4 | 0.00 | 0.00 | 0.00 | 56 | 1008.3 |
| 20260504221444 | 25 | 188 | 11.3 | 33.8 | 0.00 | 0.00 | 0.00 | 60 | 1008.9 |
| 20260504220941 | 25 | 207 | 12.9 | 20.9 | 0.00 | 0.00 | 0.00 | 57 | 1008.6 |
| 20260504220437 | 25 | 188 | 14.5 | 27.4 | 0.00 | 0.00 | 0.00 | 56 | 1008.7 |
| 20260504215934 | 24 | 197 | 20.9 | 29.0 | 0.00 | 0.00 | 0.00 | 56 | 1008.7 |
| 20260504215431 | 25 | 173 | 9.7 | 24.1 | 0.00 | 0.00 | 0.00 | 59 | 1008.7 |
| 20260504214927 | 25 | 169 | 19.3 | 25.7 | 0.00 | 0.00 | 0.00 | 57 | 1008.9 |
| 20260504214424 | 25 | 216 | 17.7 | 25.7 | 0.00 | 0.00 | 0.00 | 57 | 1008.8 |
| 20260504213920 | 25 | 207 | 16.1 | 30.6 | 0.00 | 0.00 | 0.00 | 56 | 1008.8 |
| 20260504213416 | 25 | 164 | 17.7 | 24.1 | 0.00 | 0.00 | 0.00 | 55 | 1008.8 |
| 20260504212914 | 25 | 164 | 20.9 | 30.6 | 0.00 | 0.00 | 0.00 | 56 | 1008.9 |
| 20260504212415 | 25 | 201 | 12.9 | 27.4 | 0.00 | 0.00 | 0.00 | 58 | 1008.9 |
| 20260504211913 | 25 | 201 | 14.5 | 27.4 | 0.00 | 0.00 | 0.00 | 58 | 1009.0 |
| 20260504211409 | 25 | 194 | 12.9 | 27.4 | 0.00 | 0.00 | 0.00 | 59 | 1009.0 |
| 20260504210906 | 25 | 181 | 17.7 | 27.4 | 0.00 | 0.00 | 0.00 | 58 | 1009.1 |
| 20260504210403 | 25 | 186 | 11.3 | 30.6 | 0.00 | 0.00 | 0.00 | 58 | 1009.1 |
| 20260504205900 | 25 | 179 | 12.9 | 29.0 | 0.00 | 0.00 | 0.00 | 55 | 1009.1 |
| 20260504205358 | 25 | 199 | 16.1 | 30.6 | 0.00 | 0.00 | 0.00 | 56 | 1009.0 |
| 20260504204856 | 25 | 195 | 19.3 | 32.2 | 0.00 | 0.00 | 0.00 | 56 | 1009.3 |
| 20260504204354 | 25 | 206 | 24.1 | 33.8 | 0.00 | 0.00 | 0.00 | 55 | 1009.1 |
| 20260504203854 | 25 | 207 | 19.3 | 38.6 | 0.00 | 0.00 | 0.00 | 57 | 1009.2 |
| 20260504203349 | 25 | 223 | 14.5 | 24.1 | 0.00 | 0.00 | 0.00 | 57 | 1009.3 |
| 20260504202845 | 25 | 206 | 27.4 | 29.0 | 0.00 | 0.00 | 0.00 | 58 | 1009.5 |
| 20260504202343 | 25 | 177 | 11.3 | 37.0 | 0.00 | 0.00 | 0.00 | 58 | 1009.5 |
| 20260504201839 | 25 | 203 | 27.4 | 35.4 | 0.00 | 0.00 | 0.00 | 57 | 1009.6 |
| 20260504201337 | 25 | 214 | 17.7 | 38.6 | 0.00 | 0.00 | 0.00 | 57 | 1009.8 |
| 20260504200834 | 25 | 187 | 17.7 | 43.5 | 0.00 | 0.00 | 0.00 | 55 | 1009.9 |
| 20260504200331 | 25 | 216 | 19.3 | 40.2 | 0.00 | 0.00 | 0.00 | 57 | 1010.1 |
| 20260504195827 | 25 | 205 | 14.5 | 35.4 | 0.00 | 0.00 | 0.00 | 57 | 1009.8 |
| 20260504195323 | 25 | 224 | 17.7 | 37.0 | 0.00 | 0.00 | 0.00 | 61 | 1009.9 |
| 20260504194820 | 25 | 196 | 19.3 | 35.4 | 0.00 | 0.00 | 0.00 | 58 | 1009.9 |
| 20260504194316 | 25 | 205 | 17.7 | 32.2 | 0.00 | 0.00 | 0.00 | 60 | 1009.9 |
| 20260504193812 | 25 | 208 | 22.5 | 41.8 | 0.00 | 0.00 | 0.00 | 59 | 1010.1 |
| 20260504193309 | 25 | 206 | 27.4 | 33.8 | 0.00 | 0.00 | 0.00 | 58 | 1010.2 |
| 20260504192808 | 25 | 209 | 20.9 | 41.8 | 0.00 | 0.00 | 0.00 | 59 | 1010.1 |
| 20260504192306 | 25 | 178 | 25.7 | 41.8 | 0.00 | 0.00 | 0.00 | 58 | 1010.0 |
| 20260504191804 | 24 | 204 | 27.4 | 40.2 | 0.00 | 0.00 | 0.00 | 56 | 1010.0 |
| 20260504191301 | 25 | 207 | 27.4 | 33.8 | 0.00 | 0.00 | 0.00 | 60 | 1010.1 |
| 20260504190756 | 25 | 192 | 24.1 | 38.6 | 0.00 | 0.00 | 0.00 | 57 | 1010.1 |
| 20260504190253 | 25 | 168 | 16.1 | 32.2 | 0.00 | 0.00 | 0.00 | 59 | 1010.0 |
| 20260504185749 | 24 | 201 | 29.0 | 32.2 | 0.00 | 0.00 | 0.00 | 58 | 1010.3 |
| 20260504185246 | 25 | 209 | 20.9 | 37.0 | 0.00 | 0.00 | 0.00 | 60 | 1010.0 |
| 20260504184742 | 25 | 223 | 27.4 | 32.2 | 0.00 | 0.00 | 0.00 | 58 | 1010.1 |
| 20260504184238 | 24 | 186 | 20.9 | 32.2 | 0.00 | 0.00 | 0.00 | 58 | 1010.2 |
| 20260504183734 | 24 | 223 | 30.6 | 41.8 | 0.00 | 0.00 | 0.00 | 58 | 1010.4 |
| 20260504183231 | 24 | 188 | 17.7 | 33.8 | 0.00 | 0.00 | 0.00 | 60 | 1010.2 |
| 20260504182729 | 24 | 200 | 20.9 | 37.0 | 0.00 | 0.00 | 0.00 | 59 | 1010.2 |
| 20260504182226 | 23 | 187 | 19.3 | 33.8 | 0.00 | 0.00 | 0.00 | 59 | 1010.6 |
| 20260504181724 | 23 | 206 | 22.5 | 45.1 | 0.00 | 0.00 | 0.00 | 58 | 1010.4 |
| 20260504181221 | 23 | 217 | 12.9 | 40.2 | 0.00 | 0.00 | 0.00 | 59 | 1010.5 |
| 20260504180720 | 23 | 198 | 30.6 | 33.8 | 0.00 | 0.00 | 0.00 | 60 | 1010.7 |
| 20260504180218 | 23 | 197 | 17.7 | 40.2 | 0.00 | 0.00 | 0.00 | 59 | 1010.5 |
| 20260504175716 | 23 | 207 | 24.1 | 37.0 | 0.00 | 0.00 | 0.00 | 57 | 1010.7 |
| 20260504175212 | 23 | 205 | 27.4 | 35.4 | 0.00 | 0.00 | 0.00 | 58 | 1010.4 |
| 20260504174710 | 23 | 178 | 25.7 | 38.6 | 0.00 | 0.00 | 0.00 | 59 | 1010.5 |
| 20260504174208 | 24 | 207 | 11.3 | 22.5 | 0.00 | 0.00 | 0.00 | 62 | 1010.7 |
| 20260504173704 | 23 | 220 | 37.0 | 38.6 | 0.00 | 0.00 | 0.00 | 57 | 1010.7 |
| 20260504173201 | 23 | 211 | 33.8 | 33.8 | 0.00 | 0.00 | 0.00 | 60 | 1010.5 |
| 20260504172658 | 23 | 206 | 24.1 | 32.2 | 0.00 | 0.00 | 0.00 | 58 | 1010.7 |
| 20260504172154 | 23 | 205 | 27.4 | 33.8 | 0.00 | 0.00 | 0.00 | 58 | 1010.9 |
| 20260504171650 | 23 | 201 | 29.0 | 37.0 | 0.00 | 0.00 | 0.00 | 57 | 1010.6 |
| 20260504171148 | 23 | 198 | 20.9 | 32.2 | 0.00 | 0.00 | 0.00 | 59 | 1010.8 |
| 20260504170644 | 23 | 204 | 27.4 | 37.0 | 0.00 | 0.00 | 0.00 | 57 | 1011.4 |
| 20260504170142 | 23 | 224 | 37.0 | 41.8 | 0.00 | 0.00 | 0.00 | 58 | 1011.3 |
| 20260504151033 | 21 | 205 | 24.1 | 35.4 | 0.00 | 0.00 | 0.00 | 60 | 1012.0 |
| 20260504150531 | 21 | 201 | 14.5 | 27.4 | 0.00 | 0.00 | 0.00 | 62 | 1012.0 |
| 20260504140957 | 20 | 214 | 19.3 | 29.0 | 0.00 | 0.00 | 0.00 | 62 | 1012.7 |
| 20260504140453 | 20 | 205 | 19.3 | 30.6 | 0.00 | 0.00 | 0.00 | 62 | 1012.5 |
| 20260504130418 | 17 | 180 | 16.1 | 35.4 | 0.00 | 0.00 | 0.00 | 64 | 1012.9 |